This is the latest recevied weather packets stored in our database for station/object IT9CNT. If no packets are shown the sender has not sent any weather packets the latest 10 day(s).
| Time | Temp. | Humidity | Pressure | Rain* | Wind** | Luminosity | Snow |
|---|---|---|---|---|---|---|---|
| 1787392503 | 31.11° C | 85% | 1013.1 hPa | 0 mm | - | - | - |
| 1787392443 | 31.11° C | 84% | 1013.1 hPa | 0 mm | - | - | - |
| 1787392383 | 31.11° C | 85% | 1013 hPa | 0 mm | - | - | - |
| 1787392323 | 30.56° C | 85% | 1013.1 hPa | 0 mm | - | - | - |
| 1787392263 | 30.56° C | 85% | 1013 hPa | 0 mm | - | - | - |
| 1787392203 | 31.11° C | 84% | 1013 hPa | 0 mm | - | - | - |
| 1787392143 | 31.11° C | 85% | 1012.9 hPa | 0 mm | - | - | - |
| 1787392083 | 31.11° C | 85% | 1012.9 hPa | 0 mm | - | - | - |
| 1787392023 | 31.11° C | 85% | 1012.9 hPa | 0 mm | - | - | - |
| 1787391963 | 31.11° C | 84% | 1013.1 hPa | 0 mm | - | - | - |
| 1787391903 | 31.11° C | 84% | 1013 hPa | 0 mm | - | - | - |
| 1787391843 | 31.11° C | 83% | 1013 hPa | 0 mm | - | - | - |
| 1787391783 | 31.67° C | 84% | 1013 hPa | 0 mm | - | - | - |
| 1787391723 | 31.67° C | 84% | 1013 hPa | 0 mm | - | - | - |
| 1787391663 | 31.67° C | 83% | 1013.1 hPa | 0 mm | - | - | - |
| 1787391603 | 31.67° C | 84% | 1013.2 hPa | 0 mm | - | - | - |
| 1787391543 | 31.11° C | 84% | 1012.9 hPa | 0 mm | - | - | - |
| 1787391483 | 31.11° C | 84% | 1012.9 hPa | 0 mm | - | - | - |
| 1787391423 | 31.11° C | 84% | 1013.2 hPa | 0 mm | - | - | - |
| 1787391363 | 31.11° C | 83% | 1013 hPa | 0 mm | - | - | - |
| 1787391303 | 32.22° C | 82% | 1013 hPa | 0 mm | - | - | - |
| 1787391243 | 32.22° C | 82% | 1012.9 hPa | 0 mm | - | - | - |
| 1787391183 | 31.67° C | 82% | 1013 hPa | 0 mm | - | - | - |
| 1787391123 | 31.67° C | 80% | 1013 hPa | 0 mm | - | - | - |
| 1787391063 | 31.11° C | 80% | 1012.9 hPa | 0 mm | - | - | - |
* Rain latest hour (hover to see other rain measurements)
** Current wind speed in m/s (hover to see current wind gust speed)